EW8088 Weather Reports


Display with metric or nautical units.
time (UTC)temp
F
wind
direction
speed
MPH
gust
MPH
rain 1hr
in
rain 24hr
in
rain mn
in
humidity
%
barometer
mb
20260510151016 56 0 1.0 11.0 0.00 0.00 0.00 93 1016.4
20260510150016 56 0 1.0 9.0 0.00 0.00 0.00 93 1016.6
20260510145056 55 0 1.0 7.0 0.00 0.00 0.00 93 1016.6
20260510144016 55 0 1.0 7.0 0.00 0.00 0.00 93 1016.7
20260510143016 55 338 2.0 9.0 0.00 0.00 0.00 93 1016.8
20260510142017 55 0 1.0 7.0 0.00 0.00 0.00 93 1016.9
20260510141016 55 338 1.0 6.0 0.00 0.00 0.00 93 1016.9
20260510140016 55 0 1.0 6.0 0.00 0.00 0.00 93 1017.0
20260510135016 54 0 1.0 6.0 0.00 0.00 0.00 93 1017.0
20260510134016 54 338 1.0 6.0 0.00 0.00 0.00 93 1017.0
20260510133056 54 0 1.0 8.0 0.00 0.00 0.00 93 1017.1
20260510132016 54 338 3.0 8.0 0.00 0.00 0.00 93 1017.1
20260510131036 54 0 1.0 6.0 0.00 0.00 0.00 93 1017.2
20260510130016 54 0 1.0 9.0 0.00 0.00 0.00 93 1017.3
20260510125016 54 0 1.0 9.0 0.00 0.00 0.00 93 1017.4
20260510124019 54 0 1.0 8.0 0.00 0.00 0.00 93 1017.5
20260510123016 53 338 2.0 7.0 0.00 0.00 0.00 94 1017.4
20260510122016 54 0 3.0 12.0 0.00 0.00 0.00 94 1017.5
20260510121036 54 338 1.0 6.0 0.00 0.00 0.00 94 1017.6
20260510120036 54 338 2.0 6.0 0.00 0.00 0.00 93 1017.8
20260510115036 54 0 1.0 6.0 0.00 0.00 0.00 93 1017.9
20260510114036 53 0 1.0 10.0 0.00 0.00 0.00 93 1017.9
20260510113016 53 338 1.0 8.0 0.00 0.00 0.00 93 1018.1
20260510112016 53 0 2.0 9.0 0.00 0.00 0.00 93 1018.1
20260510111016 53 0 1.0 4.0 0.00 0.00 0.00 93 1018.3
20260510110016 53 338 1.0 8.0 0.00 0.00 0.00 93 1018.4
20260510105036 53 0.0 5.0 0.00 0.00 0.00 93 1018.4
20260510104015 53 0 1.0 7.0 0.00 0.00 0.00 93 1018.3
20260510103015 53 338 1.0 6.0 0.00 0.00 0.00 93 1018.2
20260510102015 52 338 1.0 9.0 0.00 0.00 0.00 93 1018.3
20260510101035 52 0 1.0 7.0 0.00 0.00 0.00 93 1018.3
20260510100016 52 0 2.0 9.0 0.00 0.00 0.00 93 1018.4
20260510095015 53 0 1.0 7.0 0.00 0.00 0.00 93 1018.5
20260510094015 53 338 1.0 5.0 0.00 0.00 0.00 93 1018.5
20260510093016 52 338 1.0 6.0 0.00 0.00 0.00 93 1018.5
20260510092016 52 338 1.0 7.0 0.00 0.00 0.00 93 1018.5
20260510091015 52 0 1.0 8.0 0.00 0.00 0.00 93 1018.6
20260510090016 52 0 1.0 6.0 0.00 0.00 0.00 93 1018.8
20260510085016 51 338 1.0 7.0 0.00 0.00 0.00 93 1018.8
20260510084015 51 0 1.0 10.0 0.00 0.00 0.00 93 1018.8
20260510083015 51 0 1.0 6.0 0.00 0.00 0.00 93 1018.8
20260510082015 51 338 1.0 7.0 0.00 0.00 0.00 93 1018.9
20260510081035 50 0 1.0 9.0 0.00 0.00 0.00 93 1018.9
20260510080015 50 338 2.0 10.0 0.00 0.00 0.00 93 1018.9
20260510075015 50 338 2.0 11.0 0.00 0.00 0.00 94 1018.9
20260510074037 50 0 1.0 6.0 0.00 0.00 0.00 94 1019.0
20260510073017 50 338 1.0 10.0 0.00 0.00 0.00 94 1018.9
20260510072017 49 0 2.0 7.0 0.00 0.00 0.00 93 1018.9
20260510071037 49 338 1.0 10.0 0.00 0.00 0.00 93 1018.9
20260510070037 49 0 1.0 6.0 0.00 0.00 0.00 93 1018.9
20260510065016 49 338 1.0 4.0 0.00 0.00 0.00 93 1018.8
20260510064017 49 338 1.0 9.0 0.00 0.00 0.00 93 1018.7
20260510063037 49 338 1.0 6.0 0.00 0.00 0.00 93 1018.7
20260510062017 49 0 2.0 11.0 0.00 0.00 0.00 93 1018.6
20260510061017 49 0 1.0 8.0 0.00 0.00 0.00 93 1018.7
20260510060017 49 338 1.0 6.0 0.00 0.00 0.00 93 1018.7
20260510055017 49 338 1.0 6.0 0.00 0.00 0.00 93 1018.7
20260510054015 49 0 1.0 6.0 0.00 0.00 0.00 93 1018.7
20260510053037 49 0.0 5.0 0.00 0.00 0.00 93 1018.7
20260510052017 48 0.0 5.0 0.00 0.00 0.00 93 1018.7
20260510051017 48 0.0 3.0 0.00 0.00 0.00 93 1018.8
20260510050017 48 0.0 4.0 0.00 0.00 0.00 93 1018.7
20260510045017 48 0.0 1.0 0.00 0.00 0.00 93 1018.8
20260510044037 48 0.0 3.0 0.00 0.00 0.00 93 1018.9
20260510043017 48 0.0 3.0 0.00 0.00 0.00 93 1018.8
20260510042037 48 0.0 2.0 0.00 0.00 0.00 93 1018.7
20260510041037 49 338 1.0 6.0 0.00 0.00 0.00 93 1018.8
20260510040017 49 0 1.0 7.0 0.00 0.00 0.00 93 1018.8
20260510035017 48 0.0 4.0 0.00 0.00 0.00 93 1018.6
20260510034017 49 0.0 4.0 0.00 0.00 0.00 93 1018.7
20260510033057 49 0.0 5.0 0.00 0.00 0.00 93 1018.8
20260510032017 49 338 1.0 5.0 0.00 0.00 0.00 93 1018.9
20260510031017 49 0 1.0 3.0 0.00 0.00 0.00 93 1019.0
20260510030017 49 0 1.0 5.0 0.00 0.00 0.00 93 1019.1
20260510025017 49 0 1.0 5.0 0.00 0.00 0.00 93 1019.2
20260510024017 49 0 1.0 6.0 0.00 0.00 0.00 93 1019.2
20260510023017 49 0 1.0 4.0 0.00 0.00 0.00 93 1019.2
20260510022017 49 338 1.0 5.0 0.00 0.00 0.00 93 1019.2
20260510021017 49 0 1.0 8.0 0.00 0.00 0.00 93 1019.3
20260510020016 49 338 1.0 4.0 0.00 0.00 0.00 93 1019.2
20260510015017 49 338 1.0 4.0 0.00 0.00 0.00 93 1019.3
20260510014016 49 338 1.0 6.0 0.00 0.00 0.00 93 1019.3
20260510013016 49 0 1.0 6.0 0.00 0.00 0.00 93 1019.4
20260510012016 49 0 1.0 6.0 0.00 0.00 0.00 93 1019.3
20260510011016 49 338 1.0 7.0 0.00 0.00 0.00 92 1019.2
20260510010016 49 0 1.0 5.0 0.00 0.00 0.00 92 1019.2
20260510005016 49 338 1.0 4.0 0.00 0.00 0.00 92 1019.2
20260510004036 49 338 1.0 5.0 0.00 0.00 0.00 92 1019.0
20260510003036 49 0.0 5.0 0.00 0.00 0.00 92 1019.2
20260510002017 49 0.0 4.0 0.00 0.00 0.00 92 1019.2
20260510001017 49 0.0 2.0 0.00 0.00 0.00 92 1019.2
20260510000016 49 0.0 4.0 0.00 0.00 0.00 92 1019.3
20260509235016 50 0.0 6.0 0.00 0.00 0.00 92 1019.3
20260509234016 50 0.0 4.0 0.00 0.00 0.00 92 1019.4
20260509233016 50 0 1.0 5.0 0.00 0.00 0.00 92 1019.3
20260509232016 50 0.0 3.0 0.00 0.00 0.00 92 1019.4
20260509231036 50 0 1.0 9.0 0.00 0.00 0.00 92 1019.1
20260509230036 50 338 1.0 4.0 0.00 0.00 0.00 92 1019.2
20260509225017 51 0.0 3.0 0.00 0.00 0.00 92 1019.4
20260509224017 51 0.0 2.0 0.00 0.00 0.00 92 1019.4
20260509223037 52 0.0 1.0 0.00 0.00 0.00 91 1019.3
20260509222017 52 0.0 2.0 0.00 0.00 0.00 91 1019.4
20260509221037 53 0.0 4.0 0.00 0.00 0.00 91 1019.1
20260509220017 53 338 1.0 7.0 0.00 0.00 0.00 91 1018.8
20260509215017 53 0.0 4.0 0.00 0.00 0.00 91 1018.7
20260509214017 53 0.0 1.0 0.00 0.00 0.00 91 1018.6
20260509213017 54 0.0 0.0 0.00 0.00 0.00 91 1018.6
20260509212037 54 0.0 1.0 0.00 0.00 0.00 91 1018.6
20260509211016 54 0.0 2.0 0.00 0.00 0.00 91 1018.4
20260509210016 55 0.0 0.0 0.00 0.00 0.00 91 1018.3
20260509205016 55 0.0 0.0 0.00 0.00 0.00 91 1018.0
20260509204016 56 0.0 1.0 0.00 0.00 0.00 91 1017.9
20260509203016 56 0.0 0.0 0.00 0.00 0.00 91 1018.0
20260509202017 56 0.0 0.0 0.00 0.00 0.00 91 1017.8
20260509201017 56 0.0 0.0 0.00 0.00 0.00 91 1017.6
20260509200037 57 0.0 0.0 0.00 0.00 0.00 91 1017.6
20260509195036 58 0.0 0.0 0.00 0.00 0.00 91 1017.5
20260509194017 59 0.0 0.0 0.00 0.00 0.00 91 1017.4
20260509193036 60 0.0 1.0 0.00 0.00 0.00 91 1017.4
20260509192017 61 0.0 0.0 0.00 0.00 0.00 91 1017.4
20260509191036 62 0.0 1.0 0.00 0.00 0.00 91 1017.2
20260509190017 63 0.0 4.0 0.00 0.00 0.00 91 1017.2
20260509185016 64 0.0 4.0 0.00 0.00 0.00 91 1017.2
20260509184016 65 338 1.0 8.0 0.00 0.00 0.00 91 1017.0
20260509183016 66 338 1.0 8.0 0.00 0.00 0.00 91 1016.9
20260509182016 67 338 1.0 5.0 0.00 0.00 0.00 91 1016.8
20260509181036 67 0 1.0 4.0 0.00 0.00 0.00 90 1016.6
20260509180019 67 0 1.0 6.0 0.00 0.00 0.00 90 1016.5
20260509175016 67 0.0 2.0 0.00 0.00 0.00 90 1016.6
20260509174016 68 0.0 2.0 0.00 0.00 0.00 90 1016.6
20260509173016 69 0.0 1.0 0.00 0.00 0.00 90 1016.5
20260509172016 70 0.0 0.0 0.00 0.00 0.00 90 1016.6
20260509171016 71 0.0 1.0 0.00 0.00 0.00 90 1016.6
20260509170016 72 0.0 1.0 0.00 0.00 0.00 90 1016.7
20260509165016 73 0.0 4.0 0.00 0.00 0.00 90 1016.8
20260509164016 75 0.0 2.0 0.00 0.00 0.00 90 1016.8
20260509163016 73 0.0 1.0 0.00 0.00 0.00 90 1016.8
20260509162016 72 0.0 1.0 0.00 0.00 0.00 90 1016.9
20260509161016 70 0.0 1.0 0.00 0.00 0.00 90 1017.0
20260509160016 69 0.0 1.0 0.00 0.00 0.00 91 1016.9
20260509155016 69 0.0 1.0 0.00 0.00 0.00 91 1017.0
20260509154016 69 0.0 0.0 0.00 0.00 0.00 91 1017.1
20260509153016 70 0.0 2.0 0.00 0.00 0.00 91 1017.1
20260509152036 69 0.0 1.0 0.00 0.00 0.00 91 1017.1